Rechercher aéroport 
image banner adimage banner ad
image banner ad

SVMC - Maracaibo / La Chinita Intl

Situé à Maracaibo, Venezuela

ICAO - SVMC, IATA - MAR

Données fournies par Airmate  

Information générale

Coordonnées: N10°33'30" W71°43'44"
Élévation : 240 feet MSL.
 
Voir autres Aéroports à Zulia

Données opérationnelles

Accessible au public
Heure actuelle UTC:
Heure actuelle locale:
Météo
METAR: SVMC 301502Z AUTO NIL
TAF: TAF SVMC 301000Z 3012/0112 00000KT 9999 FEW013 TX34/3019Z TN23/3007Z BECMG 3015/3020 18006KT SCT013 FM302100 09006KT 9999 SCT013 SCT070
Voir NOTAMs / SUP AIP / TFR affectant cet aéroport [VIEW]
Fréquences de communication: [VIEW]

Pistes:

Identifiant RWYQFULongueur (ft)Largeur (ft)SurfaceLDA (ft)
03L23°9843148
21R203°9843148
03R23°820298CONCRETE
21L203°820298

Coordonnées de l'aéroport

Adresse: Maracaibo Venezuela

Vue satellite de SVMC